Location: Camp Creek
(33.9000°N, 111.8167°W)
Time: 03:20:40
(UTC-07:00)

DELTA 2 R/B (1) - Visible Passes

Search period start: 30 June 2016 00:00
Search period end: 10 July 2016 00:00
Orbit: 791 x 803 km, 39.6° (Epoch: 28 June)

Date Brightness Start Highest point End Pass type
(mag) Time Alt. Az. Time Alt. Az. Time Alt. Az.
30 Jun 3.6 20:29:25 10° WNW 20:35:00 84° NNE 20:40:00 13° ESE visible
30 Jun 4.7 22:16:24 10° W 22:20:46 29° SW 22:20:46 29° SW visible
01 Jul 4.5 21:45:30 10° W 21:50:23 32° SW 21:51:24 30° SSW visible
02 Jul 4.5 21:14:37 10° W 21:19:37 35° SW 21:22:05 24° S visible
03 Jul 4.4 20:43:45 10° W 20:48:52 38° SW 20:52:50 16° SSE visible
04 Jul 4.4 20:12:53 10° WNW 20:18:07 42° SSW 20:23:17 10° SE visible
06 Jul 5.9 21:00:49 10° WSW 21:02:15 11° SW 21:03:42 10° SSW visible
07 Jul 5.8 20:29:17 10° WSW 20:31:31 12° SW 20:33:46 10° SSW visible
